Location: Ch�tillon
(48.8024°N, 2.2935°E)
Time: 07:34:29
(UTC+00:00)

Lacrosse 4 Rocket - Pass Details

Date: 16 October 2021
Orbit: 537 x 619 km, 68.0° (Epoch: 02 December)

Event Time Altitude Azimuth Distance (km) Brightness Sun altitude
Rises 20:08:14 0° 325° (NW) 2,794 5.7 -31.4°
Reaches altitude 10° 20:10:26 10° 324° (NW) 1,905 4.7 -31.7°
Enters shadow 20:12:10 24° 321° (NW) 1,237 3.6 -32.0°
